Location: Fort Worth, Tx
(32.7431°N, 97.3695°W)
Time: 05:06:45
(UTC-05:00)

Tiros 1 - Pass Details

Date: 13 November 2024
Orbit: 622 x 653 km, 48.4° (Epoch: 05 December)

Event Time Altitude Azimuth Distance (km) Brightness Sun altitude
Rises 19:20:52 0° 275° (W) 2,943 12.0 -11.2°
Reaches altitude 10° 19:23:48 10° 294° (WNW) 2,041 10.5 -11.8°
Maximum altitude 19:27:09 19° 339° (NNW) 1,541 9.2 -12.5°
Drops below altitude 10° 19:30:31 10° 25° (NNE) 2,054 9.4 -13.2°
Enters shadow 19:30:59 - 29° (NNE) 2,182 9.5 -13.3°
